Waarnemingen

Advertentie
Mijn weer
Soderstjerna, Zweden (2667): temperatuur & dauwpunt: 17.05.2018 22:00:00 - 23.05.2018 22:00:00 (CEST)Soderstjerna, Zweden (2667): windsnelheid & windstoten: 17.05.2018 22:00:00 - 23.05.2018 22:00:00 (CEST)Soderstjerna, Zweden (2667): windrichting: 17.05.2018 22:00:00 - 23.05.2018 22:00:00 (CEST)Soderstjerna, Zweden (2667): luchtdruk: 17.05.2018 22:00:00 - 23.05.2018 22:00:00 (CEST)Soderstjerna, Zweden (2667): zicht: 17.05.2018 22:00:00 - 23.05.2018 22:00:00 (CEST)Soderstjerna, Zweden (2667): neerslag: 17.05.2018 22:00:00 - 23.05.2018 22:00:00 (CEST)
Datum & Tijd tt [°C] td [°C] ff [km/u] ff [kn] fx [km/u] fx [kn] dd ppp [hPa] vv [km] rr [mm]
23.05.2018 22:00:00 16,2 12,0 4 2 7 4 WZW 1027,0 45 0,0
23.05.2018 21:00:00 16,5 12,1 7 4 11 6 WZW 1026,6 45 0,0
23.05.2018 20:00:00 17,5 10,1 7 4 14 8 W 1026,2 40 0,0
23.05.2018 19:00:00 17,9 11,5 7 4 11 6 W 1026,1 30 0,0
23.05.2018 18:00:00 18,6 11,9 7 4 14 8 WZW 1025,9 35 0,0
23.05.2018 17:00:00 18,4 12,2 7 4 22 12 ZZW 1025,9 29 0,0
23.05.2018 16:00:00 17,4 11,7 14 8 18 10 Z 1025,7 35 0,0
23.05.2018 15:00:00 16,9 11,8 14 8 18 10 Z 1025,5 28 0,0
23.05.2018 14:00:00 17,0 12,5 18 10 18 10 Z 1025,4 29 0,0
23.05.2018 13:00:00 16,6 12,7 18 10 22 12 Z 1025,2 35 0,0
23.05.2018 12:00:00 16,4 12,6 14 8 18 10 Z 1024,8 29 0,0
23.05.2018 11:00:00 16,4 12,6 14 8 18 10 Z 1024,2 29 0,0
23.05.2018 10:00:00 16,1 12,1 11 6 18 10 Z 1023,6 35 0,0
23.05.2018 09:00:00 15,2 12,1 14 8 18 10 Z 1023,2 30 0,0
23.05.2018 08:00:00 14,6 11,4 4 2 4 2 ZZO 1022,7 30 0,0
23.05.2018 07:00:00 14,0 9,2 4 2 7 4 W 1021,9 40 0,0
23.05.2018 06:00:00 13,3 9,2 4 2 4 2 NW 1021,3 45 0,0
23.05.2018 05:00:00 12,2 9,8 0 0 4 2 N 1020,9 45 0,0
23.05.2018 04:00:00 12,5 8,8 0 0 11 6 N 1020,6 45 0,0
23.05.2018 03:00:00 12,5 9,5 4 2 11 6 NW 1020,4 45 0,0
23.05.2018 02:00:00 12,9 9,7 0 0 7 4 N 1020,5 45 0,0
23.05.2018 01:00:00 13,0 10,5 4 2 7 4 NW 1020,5 45 0,0
23.05.2018 00:00:00 13,4 10,6 0 0 4 2 N 1020,3 45 0,0
22.05.2018 23:00:00 13,5 10,3 0 0 7 4 N 1019,9 45 0,0
22.05.2018 22:00:00 13,8 9,4 4 2 11 6 Z 1019,7 40 0,0
22.05.2018 21:00:00 14,7 9,5 7 4 14 8 OZO 1019,2 40 0,0
22.05.2018 20:00:00 15,5 9,4 11 6 18 10 ZZO 1019,1 45 0,0
22.05.2018 19:00:00 17,2 10,6 14 8 18 10 ZO 1018,6 35 0,0
22.05.2018 18:00:00 19,4 10,7 14 8 14 8 OZO 1018,4 35 0,0
22.05.2018 17:00:00 20,0 10,1 7 4 14 8 OZO 1018,6 35 0,0
22.05.2018 16:00:00 17,5 10,8 7 4 22 12 ZO 1018,8 35 0,0
22.05.2018 15:00:00 17,2 8,9 14 8 22 12 O 1019,3 40 0,0
22.05.2018 14:00:00 18,0 9,4 11 6 18 10 O 1019,3 35 0,0
22.05.2018 13:00:00 18,3 9,6 11 6 22 12 O 1019,5 45 0,0
22.05.2018 12:00:00 17,9 10,3 18 10 25 14 O 1019,6 40 0,0
22.05.2018 11:00:00 18,3 10,9 11 6 22 12 O 1019,6 35 0,0
22.05.2018 10:00:00 18,0 11,1 18 10 22 12 O 1019,6 35 0,0
22.05.2018 09:00:00 16,1 9,3 11 6 25 14 ONO 1019,7 40 0,0
22.05.2018 08:00:00 14,0 8,2 18 10 25 14 NO 1019,9 40 0,0
22.05.2018 07:00:00 13,5 7,3 18 10 25 14 NO 1020,1 45 0,0
22.05.2018 06:00:00 12,9 6,3 22 12 25 14 NO 1020,3 45 0,0
22.05.2018 05:00:00 12,5 6,5 14 8 22 12 NO 1020,5 45 0,0
22.05.2018 04:00:00 12,8 6,4 18 10 22 12 NO 1020,9 50 0,0
22.05.2018 03:00:00 12,6 6,8 11 6 18 10 NO 1021,4 50 0,0
22.05.2018 02:00:00 13,7 6,8 14 8 25 14 ONO 1022,0 45 0,0
22.05.2018 01:00:00 14,1 6,2 14 8 25 14 ONO 1022,6 50 0,0
22.05.2018 00:00:00 14,2 5,5 14 8 18 10 NO 1023,1 45 0,0
21.05.2018 23:00:00 14,3 6,4 14 8 18 10 NO 1023,3 50 0,0
21.05.2018 22:00:00 15,3 6,3 14 8 18 10 NO 1023,7 45 0,0
21.05.2018 21:00:00 16,2 5,2 11 6 22 12 ONO 1024,0 50 0,0
21.05.2018 20:00:00 17,0 5,6 11 6 25 14 ONO 1024,3 45 0,0
21.05.2018 19:00:00 17,5 6,1 22 12 29 16 O 1024,7 40 0,0
21.05.2018 18:00:00 19,3 5,4 22 12 32 18 O 1024,9 35 0,0
21.05.2018 17:00:00 20,1 5,3 14 8 29 16 O 1025,4 40 0,0
21.05.2018 16:00:00 19,0 7,1 22 12 29 16 O 1026,1 35 0,0
21.05.2018 15:00:00 19,3 6,7 22 12 29 16 O 1026,8 40 0,0
21.05.2018 14:00:00 19,5 6,6 22 12 25 14 O 1027,4 40 0,0
21.05.2018 13:00:00 19,7 7,8 14 8 18 10 OZO 1028,0 40 0,0
21.05.2018 12:00:00 18,7 7,2 14 8 18 10 OZO 1028,7 35 0,0
21.05.2018 11:00:00 17,0 3,6 14 8 18 10 O 1029,3 40 0,0
21.05.2018 10:00:00 16,2 5,2 7 4 11 6 O 1029,5 40 0,0
21.05.2018 09:00:00 15,4 5,3 7 4 7 4 NO 1029,3 40 0,0
21.05.2018 08:00:00 13,9 3,4 7 4 7 4 NO 1029,3 45 0,0
21.05.2018 07:00:00 12,4 4,9 7 4 7 4 NO 1029,3 45 0,0
21.05.2018 06:00:00 11,8 5,2 7 4 7 4 NO 1029,2 45 0,0
21.05.2018 05:00:00 11,1 5,0 0 0 4 2 N 1029,0 50 0,0
21.05.2018 04:00:00 11,6 4,1 4 2 7 4 NO 1028,9 50 0,0
21.05.2018 03:00:00 11,5 4,7 4 2 7 4 NO 1028,9 50 0,0
21.05.2018 02:00:00 11,6 5,0 7 4 7 4 NO 1029,1 50 0,0
21.05.2018 01:00:00 11,6 6,1 4 2 11 6 NO 1029,0 50 0,0
21.05.2018 00:00:00 12,2 7,1 7 4 7 4 NO 1029,0 45 0,0
20.05.2018 23:00:00 12,6 3,3 0 0 7 4 N 1029,0 50 0,0
20.05.2018 22:00:00 13,5 2,7 4 2 7 4 ZZO 1029,1 45 0,0
20.05.2018 21:00:00 14,0 1,3 4 2 7 4 ZZW 1028,8 50 0,0
20.05.2018 20:00:00 14,9 1,4 7 4 7 4 Z 1028,9 40 0,0
20.05.2018 19:00:00 15,6 1,0 4 2 7 4 ZZW 1029,0 40 0,0
20.05.2018 18:00:00 15,4 1,5 7 4 14 8 Z 1029,1 40 0,0
20.05.2018 17:00:00 15,5 2,0 11 6 14 8 Z 1029,3 30 0,0
20.05.2018 16:00:00 16,0 2,7 14 8 18 10 Z 1029,6 40 0,0
20.05.2018 15:00:00 15,6 5,8 14 8 18 10 ZZW 1029,9 40 0,0
20.05.2018 14:00:00 16,0 6,7 14 8 18 10 ZZW 1030,0 30 0,0
20.05.2018 13:00:00 15,9 6,9 14 8 22 12 ZZW 1030,2 40 0,0
20.05.2018 12:00:00 15,8 6,8 18 10 22 12 Z 1029,8 30 0,0
20.05.2018 11:00:00 15,6 8,6 14 8 18 10 ZZW 1029,7 35 0,0
20.05.2018 10:00:00 15,1 8,8 7 4 11 6 ZZW 1029,5 40 0,0
20.05.2018 09:00:00 14,1 8,9 4 2 7 4 ZZO 1028,9 35 0,0
20.05.2018 08:00:00 12,8 9,4 0 0 7 4 N 1028,3 45 0,0
20.05.2018 07:00:00 11,0 8,2 7 4 7 4 NO 1028,0 40 0,0
20.05.2018 06:00:00 10,8 8,2 4 2 7 4 ONO 1027,6 45 0,0
20.05.2018 05:00:00 10,1 7,7 0 0 7 4 N 1027,3 50 0,0
20.05.2018 04:00:00 10,2 7,8 4 2 11 6 NNO 1027,2 45 0,0
20.05.2018 03:00:00 10,9 7,9 7 4 11 6 ONO 1027,0 45 0,0
20.05.2018 02:00:00 11,4 7,9 7 4 14 8 O 1026,9 50 0,0
20.05.2018 01:00:00 11,6 8,5 4 2 7 4 WNW 1026,4 45 0,0
20.05.2018 00:00:00 12,1 8,2 0 0 7 4 N 1026,3 45 0,0
19.05.2018 23:00:00 12,2 7,9 4 2 7 4 ZO 1026,2 45 0,0
19.05.2018 22:00:00 13,2 7,6 7 4 14 8 Z 1025,9 45 0,0
19.05.2018 21:00:00 13,4 6,0 11 6 14 8 Z 1025,3 45 0,0
19.05.2018 20:00:00 14,2 7,7 11 6 14 8 Z 1025,1 45 0,0
19.05.2018 19:00:00 15,1 7,6 14 8 18 10 Z 1025,0 35 0,0
19.05.2018 18:00:00 15,9 4,3 14 8 18 10 Z 1024,8 35 0,0
19.05.2018 17:00:00 16,3 6,4 14 8 18 10 Z 1024,8 35 0,0
19.05.2018 16:00:00 15,5 8,5 18 10 22 12 Z 1024,8 35 0,0
19.05.2018 15:00:00 16,2 8,7 18 10 22 12 Z 1024,6 30 0,0
19.05.2018 14:00:00 16,0 7,7 22 12 25 14 Z 1024,6 40 0,0
19.05.2018 13:00:00 16,3 3,4 22 12 29 16 WZW 1024,4 30 0,0
19.05.2018 12:00:00 17,0 5,3 22 12 29 16 W 1024,1 40 0,0
19.05.2018 11:00:00 17,4 5,3 11 6 14 8 W 1024,2 40 0,0
19.05.2018 10:00:00 16,4 3,1 7 4 14 8 W 1024,1 35 0,0
19.05.2018 09:00:00 15,5 2,3 7 4 11 6 N 1024,0 35 0,0
19.05.2018 08:00:00 14,0 5,6 7 4 11 6 N 1023,6 30 0,0
19.05.2018 07:00:00 12,7 5,4 4 2 7 4 NNW 1023,2 35 0,0
19.05.2018 06:00:00 11,4 1,9 4 2 11 6 N 1022,9 45 0,0
19.05.2018 05:00:00 10,3 3,8 7 4 11 6 NO 1022,4 45 0,0
19.05.2018 04:00:00 11,2 2,5 4 2 7 4 NNO 1022,5 45 0,0
19.05.2018 03:00:00 11,5 3,0 4 2 11 6 NO 1022,2 45 0,0
19.05.2018 02:00:00 12,1 3,1 4 2 14 8 N 1022,2 45 0,0
19.05.2018 01:00:00 12,3 4,3 7 4 14 8 NNO 1022,1 45 0,0
19.05.2018 00:00:00 13,1 4,0 7 4 11 6 NO 1021,9 45 0,0
18.05.2018 23:00:00 13,8 3,0 4 2 11 6 NO 1021,5 45 0,0
18.05.2018 22:00:00 13,9 3,1 7 4 14 8 NO 1021,2 45 0,0
18.05.2018 21:00:00 14,4 3,2 11 6 22 12 ONO 1020,6 45 0,0
18.05.2018 20:00:00 15,0 3,8 18 10 25 14 O 1020,0 45 0,0
18.05.2018 19:00:00 15,5 5,7 11 6 18 10 ZZO 1019,7 40 0,0
18.05.2018 18:00:00 16,7 7,9 11 6 25 14 WZW 1019,3 35 0,0
18.05.2018 17:00:00 16,1 6,8 14 8 22 12 WZW 1018,9 40 0,0
18.05.2018 16:00:00 18,6 2,4 14 8 25 14 ONO 1018,6 40 0,0
18.05.2018 15:00:00 18,9 3,1 18 10 29 16 ONO 1018,4 35 0,0
18.05.2018 14:00:00 18,6 2,8 18 10 32 18 ONO 1018,2 30 0,0
18.05.2018 13:00:00 19,3 2,2 14 8 29 16 NO 1018,0 40 0,0
18.05.2018 12:00:00 18,7 4,5 18 10 29 16 NO 1017,8 30 0,0
18.05.2018 11:00:00 17,4 3,3 14 8 25 14 NO 1017,5 40 0,0
18.05.2018 10:00:00 16,1 3,5 7 4 18 10 NNO 1017,2 30 0,0
18.05.2018 09:00:00 14,6 3,7 11 6 22 12 NO 1016,7 45 0,0
18.05.2018 08:00:00 13,0 4,4 11 6 22 12 NNO 1016,2 45 0,0
18.05.2018 07:00:00 12,3 5,0 7 4 18 10 NNO 1015,9 45 0,0
18.05.2018 06:00:00 11,8 6,1 7 4 14 8 N 1015,7 45 0,0
18.05.2018 05:00:00 12,1 6,4 7 4 18 10 NNO 1015,4 45 0,0
18.05.2018 04:00:00 12,8 6,6 7 4 14 8 N 1015,3 50 0,0
18.05.2018 03:00:00 13,1 6,9 7 4 25 14 NNO 1015,1 45 0,0
18.05.2018 02:00:00 13,6 6,9 11 6 22 12 NO 1015,0 45 0,0
18.05.2018 01:00:00 13,8 6,9 7 4 32 18 NNO 1014,9 45 0,0
18.05.2018 00:00:00 13,7 7,0 25 14 43 23 NO 1014,4 45 0,0
17.05.2018 23:00:00 14,3 7,6 25 14 32 18 NO 1014,4 45 0,0
17.05.2018 22:00:00 15,2 7,5 22 12 29 16 NO 1014,4 40 0,0

tt = temperatuur
td = dauwpunt
ff = windsnelheid
fx = windstoten
dd = windrichting
ppp = luchtdruk
vv = zicht
rr = neerslag

Weerstations in de omgeving